Location: Dittelspoint
(48.7198°N, 10.7214°E)
Time: 22:57:46
(UTC+00:00)

Cosmos 1697 Rocket - Pass Details

Date: 09 April 2020
Orbit: 831 x 845 km, 71.0° (Epoch: 27 May)

Event Time Altitude Azimuth Distance (km) Brightness Sun altitude
Rises 19:22:29 0° 335° (NNW) 3,412 6.8 -13.4°
Reaches altitude 10° 19:25:19 10° 348° (NNW) 2,475 5.7 -13.8°
Maximum altitude 19:30:08 27° 46° (NE) 1,560 4.0 -14.5°
Enters shadow 19:33:14 18° 91° (E) 1,989 4.1 -15.0°
